#timestamp,LO_Frequency,Hit,StdDev 
1522584015.3,286046990.1,N
1522584035.1,286046989.6,N
1522584055.9,286046988.1,N
1522584075.7,286046986.5,N
1522584095.5,286046986.3,N
1522584115.4,286046987.5,N
1522584135.2,286046987.4,N
1522584155.0,286046987.4,N
1522584155.9,286046987.4,N
1522584175.8,286046990.3,N
1522584195.6,286046994.8,N
1522584215.5,286046994.7,N
1522584235.3,286046989.1,N
1522584255.1,286046985.7,Y
1522584275.9,286046996.8,P
1522584295.7,286047001.6,N
1522584315.6,286047000.0,N
1522584335.4,286047003.6,N
1522584355.2,286047001.9,N
1522584375.1,286047001.6,N
1522584376.0,286047001.6,N
1522584395.8,286047005.2,N
1522584415.7,286047003.6,N
1522584435.5,286047002.8,N
1522584455.3,286047002.8,N
1522584475.2,286047004.3,N
1522584495.0,286047004.0,N
1522584495.9,286047004.0,N
1522584515.8,286047001.7,N
1522584535.6,286047001.6,N
1522584555.4,286047002.8,N
1522584575.3,286047000.5,N
1522584595.1,286046999.5,N
1522584615.8,286046995.2,N
1522584635.7,286046993.4,N
1522584655.5,286046992.0,N
1522584675.4,286046992.8,N
1522584725.2,286046993.0,E
1522584735.2,286046996.2,N
1522584755.9,286046998.4,P
1522584775.7,286046998.5,N
1522584795.6,286047000.9,N
1522584815.4,286047004.0,N
1522584835.3,286047003.3,N
1522584855.1,286047001.7,N
1522584856.0,286047001.7,N
1522584875.8,286047001.7,N
1522584895.7,286047001.3,N
1522584915.5,286046999.8,N
1522584935.3,286047002.8,N
1522584955.2,286047000.8,N
1522584975.0,286046999.9,N
1522584975.9,286046999.9,N
1522584995.8,286047001.2,N
1522585015.6,286047000.6,N
1522585035.4,286047001.1,N
1522585055.3,286046999.7,N
1522585075.1,286047004.3,N
1522585095.9,286047007.7,Y
1522585115.7,286047008.5,P
1522585135.5,286047007.3,N
1522585155.4,286047007.1,N
1522585175.2,286047006.9,N
1522585195.1,286047005.3,N
1522585196.0,286047005.3,N
1522585215.8,286047003.7,N
1522585235.6,286047001.8,N
1522585255.5,286047003.5,N
1522585275.3,286047001.3,N
1522585295.2,286047002.4,N
1522585315.9,286046999.7,N
1522585335.7,286047000.1,N
1522585355.6,286047002.5,N
1522585375.4,286047002.6,N
1522585395.2,286047000.4,N
1522585415.1,286046998.2,N
1522585416.0,286046998.2,N
1522585435.8,286046998.5,N
1522585455.7,286047000.6,N
1522585475.5,286047000.7,N
1522585495.3,286047001.7,N
1522585515.2,286047003.3,N
1522585535.0,286047006.0,N
1522585535.9,286047006.0,N
1522585555.8,286047005.6,N
1522585575.6,286047005.6,N
1522585595.4,286047001.3,N
1522585615.3,286047001.4,N
1522585635.1,286047001.6,N
1522585655.8,286047002.4,N
1522585675.7,286047001.8,N
1522585695.5,286047002.1,N
1522585715.4,286047003.4,N
1522585735.2,286047003.3,N
1522585755.0,286047006.0,N
1522585755.9,286047006.0,N
1522585775.8,286047005.5,N
1522585795.6,286047004.1,N
1522585815.4,286047004.0,N
1522585835.3,286047001.6,N
1522585855.1,286047002.5,N
1522585875.9,286047002.3,N
1522585895.7,286046999.8,N
1522585915.5,286047000.4,N
1522585935.4,286047000.8,N
1522585955.2,286046998.3,N
1522585975.1,286046998.8,N
1522585976.0,286046998.8,N
1522585995.8,286046999.6,N
1522586015.6,286046996.5,N
1522586035.5,286046998.7,N
1522586055.3,286046998.1,N
1522586075.1,286047001.2,N
1522586095.9,286046998.9,N
1522586115.7,286047001.7,N
1522586135.6,286047003.9,N
1522586155.4,286047004.8,N
1522586175.2,286047005.2,N
1522586195.1,286047005.1,N
1522586196.0,286047005.1,N
1522586215.8,286047005.1,N
1522586235.7,286047004.0,N
1522586255.5,286047002.0,N
1522586275.3,286047002.6,N
1522586295.2,286047001.0,N
1522586315.0,286047000.9,N
1522586315.9,286047000.9,N
1522586335.8,286047000.8,N
1522586355.6,286046999.1,N
1522586375.4,286046998.9,N
1522586395.3,286047001.7,N
1522586415.1,286047005.5,N
1522586435.8,286047005.5,N
1522586455.7,286047003.5,N
1522586475.5,286047004.8,N
1522586495.4,286047005.3,N
1522586515.2,286047003.6,N
1522586535.0,286047004.7,N
1522586535.9,286047004.7,N
1522586555.8,286047004.7,N
1522586575.6,286047003.0,N
1522586595.5,286047003.5,N
1522586615.3,286047002.2,N
1522586635.1,286047002.5,N
1522586655.9,286047001.9,N
1522586675.7,286047002.8,N
1522586695.5,286047000.4,N
1522586715.4,286047000.9,N
1522586735.2,286047000.5,N
1522586755.1,286047001.1,N
1522586756.0,286047001.1,N
1522586775.8,286046996.5,N
1522586795.6,286046998.3,N
1522586815.5,286047002.3,N
1522586835.3,286046999.8,N
1522586855.1,286047002.3,N
1522586875.9,286047002.2,N
1522586895.7,286047002.1,N
1522586915.6,286047001.9,N
1522586935.4,286047002.0,N
1522586955.2,286046998.6,N
1522586975.1,286047001.0,N
1522586976.0,286047001.0,N
1522586995.8,286046999.3,N
1522587015.7,286046999.1,N
1522587035.5,286046998.4,N
1522587055.3,286047000.0,N
1522587075.2,286047003.8,N
1522587095.0,286047007.6,Y
1522587095.9,286047007.6,P
1522587115.8,286047005.4,N
1522587135.6,286047004.9,N
1522587155.4,286047005.9,N
1522587175.3,286047003.8,N
1522587195.1,286047003.6,N
1522587215.8,286047004.3,N
1522587235.7,286047000.0,N
1522587255.5,286047000.1,N
1522587275.4,286046998.4,N
1522587295.2,286046996.7,N
1522587315.0,286046998.2,N
1522587315.9,286046998.2,N
1522587335.8,286046999.7,N
1522587355.6,286047000.4,N
1522587375.4,286046998.8,N
1522587395.3,286046996.6,N
1522587415.1,286047002.6,N
1522587435.9,286047002.4,N
1522587455.7,286047004.8,N
1522587475.5,286047006.9,N
1522587495.4,286047008.0,N
1522587515.2,286047007.0,N
1522587535.1,286047004.9,N
1522587536.0,286047004.9,N
1522587555.8,286047005.1,N
1522587575.6,286047007.3,N
1522587595.5,286047004.3,N
